KINEIS-5B

Last updated on Thu Oct 23 2025 00:02:50 GMT+0000 (Coordinated Universal Time)

1 62085U 24219E 25295.47694317 .00002661 00000+0 38170-3 0 9999 2 62085 97.9835 96.1831 0001307 352.7548 7.3643 14.77342441 48896
UTC large
Height (km)
Speed (km/s)
/
Latitude / Longitude
Inclination (degrees)
Orbital Period (minutes)
Azimuth
Elevation
Range (km)
Doppler Factor

Next 0 passes for location: London (51.5072 / 0.1276)

Sorry there are no passes over London.